Torna al catalogo

STARLINK-32344

AttivoComunicazioniVLEO
NORAD 61719·PAYLOAD·🇺🇸 United States

Lanciato Oct 30, 2024 da Cape Canaveral Space Force Station

Loading…

Prossimi Passaggi (prossime 24 ore)

TLE

AggiornatoSource: CelesTrak SupGP

Epoca: Sep 14, 2026, 23:00 UTC

1 61719C 24196N   26257.95881944  .00048503  00000+0  14335-2 0  2570
2 61719  53.1589 299.7432 0001150  83.0376 119.4218 15.34357281    13

Traccia STARLINK-32344 in tempo reale con AllMySat

Download on the App Store